[TLELIST] Archives

 

Current TLEs <10 JUL 2005>

July 10th 2005 PST

HST 1 20580U 90037B 05190.88370548 .00000662 00000-0 39223-4 0 3791 2 20580 28.4663 120.8901 0004029 151.6519 208.4289 14.99767482633653 ISS 1 25544U 98067A 05191.32147791 .00013175 00000-0 10536-3 0 8770 2 25544 51.6441 142.3705 0004005 99.2243 43.4638 15.71463702379321 CHANDRA 1 25867U 99040B 05188.95833333 .00000000 00000-0 00000+0 0 8065 2 25867 57.3398 103.2528 5624825 298.5503 352.5368 0.37784186 1210 These 2-Line Elements (TLEs) ...Continue Reading

Current TLEs <01 JUL 2005>

July 1st 2005 PST

HST 1 20580U 90037B 05181.43411428 .00000388 00000-0 17560-4 0 3699 2 20580 28.4660 182.4633 0003709 57.2935 302.8010 14.99758160632230 ISS 1 25544U 98067A 05182.35706443 .00003975 00000-0 33780-4 0 8154 2 25544 51.6439 188.2660 0001701 284.2492 212.0149 15.72388301377915 CHANDRA 1 25867U 99040B 05181.04166667 .00000000 00000-0 00000+0 0 8034 2 25867 57.2605 103.3370 5641373 298.7513 354.8015 0.37803072 1216 These 2-Line Elements (TLEs) ...Continue Reading

Current TLEs <28 JUN 2005>

June 28th 2005 PST

HST 1 20580U 90037B 05178.43950955 .00000442 00000-0 21862-4 0 3677 2 20580 28.4658 201.9758 0003339 23.7502 336.3213 14.99756860631780 ISS 1 25544U 98067A 05179.85568287 .00006452 00000-0 50406-4 0 7962 2 25544 51.6436 201.0812 0004012 321.3841 43.3815 15.73143532377522 CHANDRA 1 25867U 99040B 05178.41666667 .00000000 00000-0 00000+0 0 8025 2 25867 57.2310 103.4180 5638991 298.7456 357.5008 0.37796738 1219 These 2-Line Elements (TLEs) ...Continue Reading

Current TLEs <24 JUN 2005>

June 24th 2005 PST

HST 1 20580U 90037B 05174.24706016 .00000450 00000-0 22453-4 0 3642 2 20580 28.4680 229.3027 0003308 333.2409 26.8008 14.99754587631157 ISS 1 25544U 98067A 05175.37702546 .00006388 00000-0 50112-4 0 7606 2 25544 51.6444 224.0451 0003950 299.7060 244.4160 15.73066683376815 CHANDRA 1 25867U 99040B 05173.08333333 .00000000 00000-0 00000+0 0 8002 2 25867 57.2164 103.4404 5633309 298.9942 351.3281 0.37783546 1213 These 2-Line Elements (TLEs) ...Continue Reading

Current TLEs <21 JUN 2005>

June 21st 2005 PST

HST 1 20580U 90037B 05171.25244920 .00000605 00000-0 34750-4 0 3624 2 20580 28.4681 248.8168 0003529 300.8373 59.1874 14.99753482630708 ISS 1 25544U 98067A 05172.30995569 .00016312 00000-0 12100-3 0 7359 2 25544 51.6458 239.7696 0003903 286.3044 157.4343 15.73043633376339 CHANDRA 1 25867U 99040B 05171.45833333 .00000000 00000-0 00000+0 0 7993 2 25867 57.1708 103.4575 5639739 299.1091 129.9513 0.37798015 1210 These 2-Line Elements (TLEs) ...Continue Reading

Current TLEs <15 JUN 2005>

June 16th 2005 PST

HST 1 20580U 90037B 05166.66070790 .00000870 00000-0 55701-4 0 3594 2 20580 28.4682 278.7297 0003779 251.4137 108.6042 14.99749702630011 ISS 1 25544U 98067A 05167.09691111 .00021014 00000-0 15555-3 0 6974 2 25544 51.6461 266.4951 0004033 262.0331 162.2728 15.72883602375516 CHANDRA 1 25867U 99040B 05165.16666667 .00000000 00000-0 00000+0 0 7976 2 25867 57.1088 103.5913 5642811 299.1912 353.3896 0.37793925 1217 These 2-Line Elements (TLEs) ...Continue Reading

Current TLEs <13 JUN 2005>

June 13th 2005 PST

HST 1 20580U 90037B 05163.73263771 .00000655 00000-0 38662-4 0 3578 2 20580 28.4683 297.8100 0003914 222.3798 137.6489 14.99745036629570 ISS 1 25544U 98067A 05164.82288594 .00015325 00000-0 11529-3 0 6817 2 25544 51.6456 278.1517 0004008 247.3290 252.2798 15.72768672375156 CHANDRA 1 25867U 99040B 05162.54166667 .00000000 00000-0 00000+0 0 7969 2 25867 57.1078 103.6166 5642479 299.2869 355.9922 0.37787142 1211 These 2-Line Elements (TLEs) ...Continue Reading

Current TLEs <10 JUN 2005>

June 10th 2005 PST

HST 1 20580U 90037B 05159.87289796 .00000830 00000-0 52561-4 0 3549 2 20580 28.4685 322.9543 0003992 182.6417 177.4150 14.99741689628997 ISS 1 25544U 98067A 05161.11184028 .00017473 00000-0 13136-3 0 6589 2 25544 51.6459 297.1678 0004334 228.5741 125.8877 15.72664548374566 CHANDRA 1 25867U 99040B 05160.00000000 .00000000 00000-0 00000+0 0 7955 2 25867 57.0979 103.6198 5646571 299.3970 9.9367 0.37790199 1211 These 2-Line Elements (TLEs) ...Continue Reading

Current TLEs <07 JUN 2005>

June 7th 2005 PST

HST 1 20580U 90037B 05156.87826604 .00000694 00000-0 41777-4 0 3524 2 20580 28.4687 342.4675 0004024 155.3347 204.7434 14.99737383628544 ISS 1 25544U 98067A 05158.39632353 .00018897 00000-0 14225-3 0 6417 2 25544 51.6456 311.0819 0004656 213.9087 236.5299 15.72566712374140 CHANDRA 1 25867U 99040B 05157.37500000 .00000000 00000-0 00000+0 0 7945 2 25867 57.0633 103.6412 5654831 299.4677 12.5777 0.37800392 1212 These 2-Line Elements (TLEs) ...Continue Reading

Current TLEs <26 MAY 2005>

May 26th 2005 PST

HST 1 20580U 90037B 05142.90319376 .00000282 00000-0 92430-5 0 3421 2 20580 28.4676 73.5252 0002911 357.4257 2.6278 14.99719249626442 ISS 1 25544U 98067A 05143.98767361 .00016412 00000-0 12685-3 0 5355 2 25544 51.6463 24.8731 0005663 155.5693 43.6603 15.72054135371877 CHANDRA 1 25867U 99040B 05141.41666667 .00000000 00000-0 00000+0 0 7901 2 25867 56.8248 103.9565 5666700 299.7242 0.0256 0.37804323 1214 These 2-Line Elements (TLEs) ...Continue Reading
  • This mailing list is a public mailing list - anyone may join or leave, at any time.
  • This mailing list is announce-only.

International Space Station (ISS) / Hubble Space Telescope (HST) / Chandra X-Ray Observatory Orbital Data via EMAIL

Privacy Policy:

Private list